Regional Weather Roundup
Issued by NWS

Home | Current Version | Previous Version | Graphics & Text | Print | Product List | Glossary On
Versions: 1 2 3 4 5 6 7 8 9 10 11 12 13 14 15 16 17 18 19 20 21 22 23 24 25 26 27 28 29 30 31 32 33 34 35 36 37 38 39 40 41 42 43 44 45 46 47 48 49 50
000
ASUS43 KLOT 270610
RWRIL

ILLINOIS REGIONAL WEATHER ROUNDUP
NATIONAL WEATHER SERVICE CHICAGO/ROMEOVILLE IL
1200 AM CST SAT DEC 27 2014

NOTE: "FAIR" INDICATES FEW OR NO CLOUDS BELOW 12,000 FEET WITH NO
SIGNIFICANT WEATHER AND/OR OBSTRUCTIONS TO VISIBILITY.

* THESE STATIONS ARE NOT UNDER NWS QUALITY CONTROL. THEY ALSO MAY NOT
  REPORT WEATHER SUCH AS PRECIPITATION OR FOG.

ILZ001-002-007-009-015-016-024-270700-
NORTHWEST ILLINOIS

CITY           SKY/WX    TMP DP  RH WIND       PRES   REMARKS
MOLINE         CLOUDY    47  42  83 SE8       29.93F
6HR MIN TEMP:  39; 6HR MAX TEMP:  47; 6HR PCP: TRACE;

STERLING*      CLOUDY    45  39  81 SE7       29.97F
SAVANNA*       CLOUDY    43  38  85 E3        29.95F
$$

ILZ003-004-008-010-011-017-018-270700-
NORTH CENTRAL ILLINOIS

CITY           SKY/WX    TMP DP  RH WIND       PRES   REMARKS
ROCKFORD       CLOUDY    44  40  85 S7        29.99F
6HR MIN TEMP:  40; 6HR MAX TEMP:  45;

FREEPORT*      CLOUDY    41  38  90 SE5       29.97F
ROCHELLE*      CLOUDY    41  40  97 CALM      29.99F
DE KALB*       CLOUDY    41  39  93 SE9       29.99F
PERU*          CLOUDY    45  42  88 S12       30.00F
$$

ILZ005-006-012>014-019>023-270700-
NORTHEAST ILLINOIS

CITY           SKY/WX    TMP DP  RH WIND       PRES   REMARKS
CHICAGO-OHARE  CLOUDY    44  41  89 S6        30.01F
6HR MIN TEMP:  43; 6HR MAX TEMP:  48;

CHICAGO-MIDWAY MOCLDY    48  43  82 S10       30.02F
6HR MIN TEMP:  48; 6HR MAX TEMP:  51;

AURORA         PTCLDY    44  40  85 S8        30.01F
6HR MIN TEMP:  38; 6HR MAX TEMP:  47;

LANSING*       CLOUDY    46  42  88 S8        30.04F
JOLIET*        PTCLDY    44  41  88 S8        30.02F
WAUKEGAN       CLOUDY    44  39  82 S3        30.00F
6HR MIN TEMP:  38; 6HR MAX TEMP:  45;

DUPAGE AIRPORT PTCLDY    44  41  89 S8        30.00F
6HR MIN TEMP:  40; 6HR MAX TEMP:  47;

KANKAKEE*      PTCLDY    44  41  92 S12       30.04F
WHEELING       CLOUDY    46  41  82 S7        30.03F
6HR MIN TEMP:  39; 6HR MAX TEMP:  48;

MORRIS*        CLOUDY    44  43  97 S10       30.01F
ROMEOVILLE*    MOCLDY    43  42  95 S9        30.02F
NORTHERLY ISL    N/A     48  42  80 S7          N/A
$$

LMZ740>746-270700-
SOUTHERN LAKE MICHIGAN

STATION/POSITION SKY/WX   TEMP    WIND        PRES    VSBY  WAVE
                          AIR SEA DIR/SP/G                  HT/PER
                          (F)     (DEG/KT/KT) (MB)    (MI)  (FT/S)
WAUKEGAN HARBOR            41      CALM  /  7   N/A
HARRISON CRIB              46     170/ 13/ 15   N/A
BURNHAM HARBOR             47     200/  5/ 11   N/A
CALUMET HARBOR             47     180/ 10/ 16 1015.6F
MICHIGAN CITY              47     160/ 13/ 17   N/A
$$

ILZ025>027-034>036-040-047-049-050-058-095>099-270700-
WEST-CENTRAL ILLINOIS

CITY           SKY/WX    TMP DP  RH WIND       PRES   REMARKS
QUINCY         CLOUDY    50  46  86 S14       29.98R
GALESBURG*     CLOUDY    46  43  88 SE6       29.96F
MACOMB*        CLOUDY    47  44  89 S10       29.99S
JACKSONVILLE*  LGT RAIN  49  47  92 S12G18    30.02S
PITTSFIELD*    CLOUDY    49  46  89 S12       30.02R
$$

ILZ028>032-037-038-041>044-048-051>054-059>061-270700-
CENTRAL ILLINOIS

CITY           SKY/WX    TMP DP  RH WIND       PRES   REMARKS
PONTIAC        CLOUDY    46  43  89 S14       30.03S
BLOOMINGTON    LGT RAIN  47  45  93 S23       30.03F FOG
DECATUR        LGT RAIN  48  43  82 SW12      30.07R
PEORIA         CLOUDY    48  42  80 S10       30.00F
6HR MIN TEMP:  46; 6HR MAX TEMP:  51;

LACON*         MOCLDY    44  41  87 SE5       30.00F
LINCOLN*       CLOUDY    48  45  90 S15       30.03F
SPRINGFIELD    LGT RAIN  48  45  89 S15       30.04S FOG
6HR MIN TEMP:  48; 6HR MAX TEMP:  52; 6HR PCP:  0.08;

TAYLORVILLE    RAIN      45  43  93 S13       30.06S
$$

ILZ033-039-045-046-055>057-062-063-270700-
EAST-CENTRAL ILLINOIS

CITY           SKY/WX    TMP DP  RH WIND       PRES   REMARKS
CHAMPAIGN      CLOUDY    48  43  82 S12       30.05F
DANVILLE*      CLOUDY    47  42  81 S13G18    30.05F
RANTOUL*       CLOUDY    49  45  84 S12G17    30.06S
MATTOON        CLOUDY    47  41  80 S16       30.05F
PARIS*         CLOUDY    47  42  84 S10       30.10S
$$

ILZ079-100>102-270700-
SOUTHWEST ILLINOIS

CITY           SKY/WX    TMP DP  RH WIND       PRES   REMARKS
ALTON          RAIN      46  44  93 S10       30.07F
BELLEVILLE     DRIZZLE   46  46 100 S8        30.08S
CAHOKIA*       CLOUDY    48  45  89 SE3       30.07F
SPARTA*        RAIN      47  42  84 S10       30.09S
$$

ILZ064>066-069>071-074>076-080>082-084>086-088>090-092>094-270700-
SOUTH-CENTRAL ILLINOIS

CITY           SKY/WX    TMP DP  RH WIND       PRES   REMARKS
CARBONDALE     LGT RAIN  50  40  68 S13       30.12F
6HR MIN TEMP:  49; 6HR MAX TEMP:  52; 6HR PCP: TRACE;

CAIRO*         CLOUDY    50  41  70 S5        30.15F
EFFINGHAM*     CLOUDY    49  37  61 SE7       30.10F
MARION         CLOUDY    50  41  71 S13G20    30.12F
MT. VERNON     CLOUDY    48  37  66 S10       30.11S
CENTRALIA*     CLOUDY    49  38  65 S13       30.09S
SALEM*         CLOUDY    51  39  64 S10       30.09S
METROPOLIS*    CLOUDY    48  40  73 CALM      30.15S
$$

ILZ067-068-072-073-078-083-087-091-270700-
SOUTHEAST ILLINOIS

CITY           SKY/WX    TMP DP  RH WIND       PRES   REMARKS
LAWRENCEVILLE  MOCLDY    45  39  79 S9        30.14F
FLORA*         CLEAR     46  39  76 S9        30.11S
FAIRFIELD*     CLOUDY    48  39  70 S9        30.11F
HARRISBURG*    CLOUDY    50  40  69 S9        30.14S
ROBINSON*      MOCLDY    45  39  81 S6        30.13F
CARMI*         CLOUDY    49  42  75 S13       30.13S
$$

ABBREVIATIONS USED IN REMARKS
   TC - TEMPERATURE IN CELSIUS
  WCI - WIND CHILL INDEX
   HX - HEAT INDEX
  VSB - VISIBILITY
$$




USA.gov is the U.S. government's official web portal to all federal, state and local government web resources and services.